When you browse on this site, cookies collect data to enhance your experience and personalize the content and advertising you see.
Visit our Privacy Policy to learn more. By continuing to use the site, you agree to this use of cookies and data.
  • In Romania
  • List of Countries
  • For 7 days
  • Water Temperature
  • Satellite Maps
  • Weather Map
  • Weather Widgets
  • user-avatar
    Login

    Hourly Weather Seoni

    Today, 18 February, Monday

    Time Temperature Precipitation Wind Pressure Humidity
    00:00 +18°C° 0 mm 2 mps 707 mmHg 25%
    01:00 +17°C° 0 mm 2 mps 706 mmHg 25%
    02:00 +18°C° 0 mm 1 mps 706 mmHg 25%
    03:00 +18°C° 0 mm 1 mps 706 mmHg 26%
    04:00 +16°C° 0 mm 1 mps 706 mmHg 26%
    05:00 +16°C° 0 mm 1 mps 706 mmHg 26%
    06:00 +19°C° 0 mm 1 mps 706 mmHg 25%
    07:00 +20°C° 0 mm 1 mps 707 mmHg 24%
    08:00 +22°C° 0 mm 1 mps 708 mmHg 23%
    09:00 +24°C° 0 mm 1 mps 708 mmHg 21%
    10:00 +26°C° 0 mm 1 mps 708 mmHg 19%
    11:00 +29°C° 0 mm 2 mps 709 mmHg 17%
    12:00 +30°C° 0 mm 2 mps 709 mmHg 17%
    13:00 +31°C° 0 mm 2 mps 708 mmHg 17%
    14:00 +31°C° 0 mm 2 mps 707 mmHg 17%
    15:00 +31°C° 0 mm 1 mps 707 mmHg 19%
    16:00 +30°C° 0 mm 1 mps 706 mmHg 21%
    17:00 +29°C° 0 mm 1 mps 706 mmHg 24%
    18:00 +27°C° 0 mm 1 mps 706 mmHg 26%
    19:00 +25°C° 0 mm 1 mps 706 mmHg 28%
    20:00 +24°C° 0 mm 1 mps 706 mmHg 30%
    21:00 +23°C° 0 mm 1 mps 706 mmHg 30%
    22:00 +23°C° 0 mm 1 mps 706 mmHg 31%
    23:00 +22°C° 0 mm 1 mps 706 mmHg 31%

    Tomorrow, 19 February, Tuesday

    Time Temperature Precipitation Wind Pressure Humidity
    00:00 +22°C° 0 mm 1 mps 706 mmHg 32%
    01:00 +21°C° 0 mm 1 mps 706 mmHg 32%
    02:00 +21°C° 0 mm 1 mps 705 mmHg 32%
    03:00 +21°C° 0 mm 1 mps 705 mmHg 33%
    04:00 +20°C° 0 mm 1 mps 706 mmHg 33%
    05:00 +20°C° 0 mm 1 mps 706 mmHg 34%
    06:00 +21°C° 0 mm 1 mps 707 mmHg 32%
    07:00 +23°C° 0 mm 1 mps 708 mmHg 30%
    08:00 +25°C° 0 mm 1 mps 708 mmHg 29%
    09:00 +27°C° 0 mm 2 mps 709 mmHg 25%
    10:00 +29°C° 0 mm 2 mps 709 mmHg 21%
    11:00 +31°C° 0 mm 2 mps 710 mmHg 17%
    12:00 +33°C° 0 mm 3 mps 709 mmHg 16%
    13:00 +34°C° 0 mm 3 mps 709 mmHg 15%
    14:00 +35°C° 0 mm 3 mps 708 mmHg 14%
    15:00 +34°C° 0 mm 3 mps 708 mmHg 15%
    16:00 +32°C° 0 mm 2 mps 708 mmHg 17%
    17:00 +32°C° 0 mm 2 mps 708 mmHg 18%
    18:00 +29°C° 0 mm 2 mps 708 mmHg 20%
    19:00 +27°C° 0 mm 2 mps 708 mmHg 22%
    20:00 +25°C° 0 mm 2 mps 709 mmHg 24%
    21:00 +25°C° 0 mm 2 mps 709 mmHg 25%
    22:00 +24°C° 0 mm 2 mps 709 mmHg 26%
    23:00 +24°C° 0 mm 1 mps 709 mmHg 27%

    Day after tomorrow, 20 February, Wednesday

    Time Temperature Precipitation Wind Pressure Humidity
    00:00 +23°C° 0 mm 1 mps 709 mmHg 28%
    01:00 +23°C° 0 mm 1 mps 708 mmHg 28%
    02:00 +22°C° 0 mm 1 mps 708 mmHg 29%
    03:00 +22°C° 0 mm 1 mps 708 mmHg 30%
    04:00 +22°C° 0 mm 1 mps 708 mmHg 30%
    05:00 +22°C° 0 mm 1 mps 708 mmHg 30%
    06:00 +23°C° 0 mm 1 mps 709 mmHg 29%
    07:00 +24°C° 0 mm 1 mps 710 mmHg 28%
    08:00 +26°C° 0 mm 1 mps 711 mmHg 27%
    09:00 +28°C° 0 mm 2 mps 711 mmHg 24%
    10:00 +30°C° 0 mm 3 mps 711 mmHg 21%
    11:00 +33°C° 0 mm 3 mps 712 mmHg 19%
    12:00 +34°C° 0 mm 3 mps 711 mmHg 18%
    13:00 +34°C° 0 mm 3 mps 710 mmHg 17%
    14:00 +35°C° 0 mm 3 mps 709 mmHg 16%
    15:00 +35°C° 0 mm 2 mps 709 mmHg 17%
    16:00 +34°C° 0 mm 2 mps 709 mmHg 19%
    17:00 +32°C° 0 mm 2 mps 709 mmHg 21%
    18:00 +31°C° 0 mm 2 mps 710 mmHg 23%
    19:00 +29°C° 0 mm 2 mps 710 mmHg 25%
    20:00 +27°C° 0 mm 2 mps 710 mmHg 28%
    21:00 +27°C° 0 mm 2 mps 711 mmHg 29%
    22:00 +27°C° 0 mm 2 mps 711 mmHg 31%
    23:00 +26°C° 0 mm 2 mps 711 mmHg 32%

    21 February, Thursday

    Time Temperature Precipitation Wind Pressure Humidity
    00:00 +26°C° 0.1 mm 1 mps 710 mmHg 34%
    01:00 +25°C° 0.1 mm 1 mps 710 mmHg 36%
    02:00 +22°C° 0.1 mm 0 mps 709 mmHg 38%
    03:00 +22°C° 0.1 mm 0 mps 709 mmHg 39%
    04:00 +24°C° 0.1 mm 1 mps 709 mmHg 40%
    05:00 +24°C° 0.1 mm 1 mps 709 mmHg 42%
    06:00 +25°C° 0 mm 2 mps 710 mmHg 39%
    07:00 +26°C° 0 mm 2 mps 711 mmHg 35%
    08:00 +27°C° 0 mm 3 mps 712 mmHg 32%
    09:00 +29°C° 0 mm 3 mps 712 mmHg 30%
    10:00 +32°C° 0 mm 4 mps 712 mmHg 28%
    11:00 +34°C° 0 mm 4 mps 712 mmHg 26%
    12:00 +35°C° 0 mm 4 mps 712 mmHg 26%
    13:00 +36°C° 0 mm 4 mps 711 mmHg 26%
    14:00 +36°C° 0 mm 4 mps 710 mmHg 26%
    15:00 +36°C° 0 mm 3 mps 709 mmHg 28%
    16:00 +35°C° 0 mm 3 mps 709 mmHg 30%
    17:00 +34°C° 0 mm 2 mps 709 mmHg 32%
    18:00 +32°C° 0.3 mm 2 mps 709 mmHg 36%
    19:00 +30°C° 0.3 mm 2 mps 710 mmHg 40%
    20:00 +28°C° 0.3 mm 1 mps 710 mmHg 45%
    21:00 +28°C° 0.5 mm 1 mps 710 mmHg 48%
    22:00 +27°C° 0.5 mm 1 mps 710 mmHg 51%
    23:00 +26°C° 0.5 mm 1 mps 710 mmHg 54%

    22 February, Friday

    Time Temperature Precipitation Wind Pressure Humidity
    00:00 +26°C° 0 mm 1 mps 709 mmHg 54%
    01:00 +26°C° 0 mm 1 mps 709 mmHg 55%
    02:00 +26°C° 0 mm 1 mps 708 mmHg 55%
    03:00 +25°C° 0 mm 2 mps 708 mmHg 56%
    04:00 +25°C° 0 mm 2 mps 708 mmHg 57%
    05:00 +25°C° 0 mm 2 mps 708 mmHg 58%
    06:00 +26°C° 0 mm 3 mps 709 mmHg 49%
    07:00 +27°C° 0 mm 3 mps 710 mmHg 41%
    08:00 +29°C° 0 mm 3 mps 711 mmHg 33%
    09:00 +31°C° 0 mm 3 mps 711 mmHg 30%
    10:00 +34°C° 0 mm 3 mps 711 mmHg 26%
    11:00 +35°C° 0 mm 2 mps 711 mmHg 22%
    12:00 +35°C° 0 mm 2 mps 710 mmHg 24%
    13:00 +35°C° 0 mm 3 mps 709 mmHg 25%
    14:00 +35°C° 0 mm 3 mps 709 mmHg 26%
    15:00 +34°C° 0 mm 2 mps 708 mmHg 29%
    16:00 +32°C° 0 mm 1 mps 708 mmHg 33%
    17:00 +31°C° 0 mm 1 mps 708 mmHg 36%
    18:00 +30°C° 0 mm 1 mps 708 mmHg 37%
    19:00 +30°C° 0 mm 1 mps 709 mmHg 37%
    20:00 +30°C° 0 mm 1 mps 709 mmHg 38%
    21:00 +29°C° 0 mm 1 mps 709 mmHg 39%
    22:00 +27°C° 0 mm 2 mps 709 mmHg 40%
    23:00 +26°C° 0 mm 3 mps 709 mmHg 41%

    23 February, Saturday

    Time Temperature Precipitation Wind Pressure Humidity
    00:00 +26°C° 0 mm 2 mps 708 mmHg 41%
    01:00 +25°C° 0 mm 2 mps 708 mmHg 41%
    02:00 +25°C° 0 mm 2 mps 707 mmHg 41%
    03:00 +25°C° 0 mm 2 mps 707 mmHg 42%
    04:00 +24°C° 0 mm 2 mps 707 mmHg 43%
    05:00 +24°C° 0 mm 2 mps 707 mmHg 44%
    06:00 +25°C° 0 mm 2 mps 708 mmHg 42%
    07:00 +26°C° 0 mm 2 mps 708 mmHg 40%
    08:00 +27°C° 0 mm 1 mps 709 mmHg 38%
    09:00 +29°C° 0.1 mm 2 mps 709 mmHg 35%
    10:00 +31°C° 0.1 mm 2 mps 709 mmHg 31%
    11:00 +34°C° 0.1 mm 3 mps 709 mmHg 28%
    12:00 +34°C° 0 mm 3 mps 708 mmHg 28%
    13:00 +34°C° 0 mm 3 mps 708 mmHg 28%
    14:00 +35°C° 0 mm 3 mps 707 mmHg 28%
    15:00 +34°C° 0.1 mm 3 mps 707 mmHg 31%
    16:00 +31°C° 0.1 mm 3 mps 706 mmHg 34%
    17:00 +30°C° 0.1 mm 3 mps 706 mmHg 36%
    18:00 +29°C° 0.1 mm 2 mps 706 mmHg 39%
    19:00 +28°C° 0.1 mm 2 mps 707 mmHg 42%
    20:00 +27°C° 0.1 mm 1 mps 707 mmHg 45%
    21:00 +26°C° 0.1 mm 2 mps 707 mmHg 47%
    22:00 +26°C° 0.1 mm 2 mps 706 mmHg 50%
    23:00 +25°C° 0.1 mm 2 mps 706 mmHg 53%
    Show more